Regional Weather Roundup
Issued by NWS Newport/Morehead, NC

Current Version | Previous Version | Text Only | Print | Product List | Glossary On
Versions: 1 2 3 4 5 6 7 8 9 10 11 12 13 14 15 16 17 18 19 20 21 22 23 24 25 26 27 28 29 30 31 32 33 34 35 36 37 38 39 40 41 42 43 44 45 46 47 48 49 50
000
ASUS42 KMHX 290225
RWRMHX
WEATHER ROUNDUP FOR EASTERN NORTH CAROLINA
NATIONAL WEATHER SERVICE NEWPORT/MOREHEAD CITY NC
1000 PM EDT WED JUN 28 2017

NOTE: "FAIR" INDICATES FEW OR NO CLOUDS BELOW 12,000 FEET
WITH NO SIGNIFICANT WEATHER AND/OR OBSTRUCTIONS TO VISIBILITY

NCZ015>017-031-032-045>047-102-103-290300-
NORTH COAST

CITY           SKY/WX    TMP DP  RH WIND       PRES   REMARKS
EDENTON        CLEAR     74  63  69 SE8       30.20R
ELIZABETH CITY CLEAR     70  62  76 SE7       30.20R
KITTY HAWK     CLEAR     70  58  66 E7        30.19S
MANTEO         CLEAR     69  61  74 SE8       30.21R

$$

NCZ045>047-081-094-103-104-290300-
CENTRAL COAST

CITY           SKY/WX    TMP DP  RH WIND       PRES   REMARKS
FRISCO         NOT AVBL

$$

NCZ095-097-098-100-101-290300-
SOUTHERN COAST

CITY           SKY/WX    TMP DP  RH WIND       PRES   REMARKS
BEAUFORT       CLEAR     72  57  59 CALM      30.19R
CEDAR ISLAND   NOT AVBL
JACKSONVILLE   CLEAR     72  62  71 S3        30.19R
PINEY ISLAND   CLEAR    N/A N/A N/A E8        30.19R
WILMINGTON     CLEAR     74  59  59 E5        30.19R


$$

NCZ011>013-027>030-043-044-078>080-089-090>093-098-290300-
COASTAL PLAIN

CITY           SKY/WX    TMP DP  RH WIND       PRES   REMARKS
AHOSKIE          N/A     66  60  81 CALM      30.19R
CLINTON        CLEAR     71  59  65 CALM      30.19R
ELIZABETHTOWN  NOT AVBL
GOLDSBORO      CLEAR     70  63  78 CALM      30.17R
GREENVILLE     CLEAR     73  61  64 SE3       30.20R
HAVELOCK       CLEAR     71  58  63 SE5       30.20R
KENANSVILLE    CLEAR     66  61  82 CALM      30.20R
KINSTON        CLEAR     72  61  68 S6        30.20R
NEW BERN       CLEAR     69  63  81 S3        30.20R
RICHLANDS      CLEAR     69  61  75 CALM      30.20R
ROCKY MOUNT    CLEAR     66  62  87 CALM      30.18R
WASHINGTON     CLEAR    N/A N/A N/A CALM      30.20R
WHITEVILLE     CLEAR     70  62  75 CALM      30.18R

$$

AMZ130-135-150-152-154-156-158-170-250-252-270-ANZ085-086-088-633-658-670-290300-
MARINE OBSERVATIONS

STATION/POSITION TIME  TEMP    WIND        PRES    WAVE   SWELL
                       AIR SEA DIR/SP/G            HT/PER HT/PER
                 (UTC) (F)     (DEG/KT/KT) (MB)    (FT/S) (FT/S)
CHESAPEAKE LIGHT NOT AVBL
64 E VA BEACH    0150   71 74  120/  8/ 10 1023.0    2/ 8   2/ 8
DUCK             0154   72 74  120/ 12/ 14 1022.2
2 E DUCK         NOT AVBL
OREGON INLET     0154   72 76   90/  6/  9 1022.6
13E OREGON INLT  0148      76                N/A     3/ 5   2/ 5
HATTERAS CG      0154   73 78   80/  4/  5 1022.5
DIAMOND BUOY     0150   79 83  100/  8/ 10 1022.1    2/ 7   2/ 7
CAPE LOOKOUT     0200   79     110/  9/ 10 1022.0
BEAUFORT LAB     0154   77 79   80/  4/  6 1021.7
30 SE NEW RVR IN NOT AVBL
30 SE NEW RVR IN 0213      80                N/A     2/ 7
27 SE WRIGHTSVLE NOT AVBL
5 SE WRIGHTSVLE  NOT AVBL
225 S CAPE HAT   0150   80 81   70/ 14/ 17 1020.2    3/ 4   2/ 8
41 SE CHARLESTON 0210   81 81   90/ 14/ 17 1021.0

$$




USA.gov is the U.S. government's official web portal to all federal, state and local government web resources and services.